Skip Page Navigation
NASA JPL Caltech
NASA Logo - Jet Propulsion Laboratory + View the NASA Portal
+ Near-Earth Object (NEO) Program
Search JPL
JPL Home Earth Solar System Stars & Galaxies Technology
JPL Solar System Dynamics
BODIES ORBITS EPHEMERIDES TOOLS PHYSICAL DATA DISCOVERY FAQ SITE MAP
JPL Small-Body Database Browser
Search: [ help ]  
16752 (1996 QP1)
Classification: Main-belt Asteroid          SPK-ID: 2016752
Ephemeris | Orbit Diagram | Orbital Elements | Physical Parameters | Discovery Circumstances | Close-Approach Data ]

[ show orbit diagram ]
Orbital Elements at Epoch 2457600.5 (2016-Jul-31.0) TDB
Reference: JPL 17 (heliocentric ecliptic J2000)
 Element Value Uncertainty (1-sigma)   Units 
e .2405183473856536 5.7591e-08  
a 2.415389960471393 1.3749e-08 au
q 1.834444358886915 1.3785e-07 au
i 2.693791826178308 6.0862e-06 deg
node 162.7332202284363 0.00010704 deg
peri 176.0694165313361 0.00010764 deg
M 107.575377330585 1.0786e-05 deg
tp 2457190.777617503315
(2015-Jun-17.27761750)
4.0402e-05 JED
period 1371.132143422846
3.75
1.1707e-05
3.205e-08
d
yr
n .2625567504393184 2.2418e-09 deg/d
Q 2.996335562055872 1.7055e-08 au
  Orbit Determination Parameters
   # obs. used (total)      901  
   data-arc span      9122 days (24.97 yr)  
   first obs. used      1991-03-13  
   last obs. used      2016-03-03  
   planetary ephem.      DE431  
   SB-pert. ephem.      SB431-BIG16  
   condition code      0  
   fit RMS      .58189  
   data source      ORB  
   producer      Otto Matic  
   solution date      2016-Mar-24 16:27:43  

Additional Information
 Earth MOID = .824754 au 
 Jupiter MOID = 2.39207 au 
 T_jup = 3.475 
[ show covariance matrix ]

Ephemeris | Orbit Diagram | Orbital Elements | Physical Parameters | Discovery Circumstances | Close-Approach Data ]

Physical Parameter Table
Parameter Symbol Value Units Sigma Reference Notes
absolute magnitude H 15.0 mag n/a MPO347655  

16752 (1996 QP1)          Discovered 1996-Aug-22 by Shimizu, Y., Urata, T. at Nachi-Katsuura
Reference: 20000913/Numbers.arcLast Updated: 2004-04-19

[ show close-approach data ]
Ephemeris | Orbit Diagram | Orbital Elements | Physical Parameters | Discovery Circumstances | Close-Approach Data ]
ABOUT SSD CREDITS/AWARDS PRIVACY/COPYRIGHT GLOSSARY LINKS
FirstGov 2016-Apr-28 23:53 UT
(server date/time)  
NASA Home Page
Site Manager:   Ryan S. Park
Webmaster  Alan B. Chamberlin